OE3UKW Weather Reports


time (UTC)temp
F
wind
direction
speed
knots
gust
knots
rain 1hr
in
rain 24hr
in
rain mn
in
humidity
%
barometer
mb
20260507212112 56 223 14.8 16.5 0.00 0.00 0.00 66 1015.6
20260507211112 56 219 15.6 19.1 0.00 0.00 0.00 67 1015.6
20260507210112 56 224 12.2 17.4 0.00 0.00 0.00 68 1015.4
20260507205112 56 221 11.3 14.8 0.00 0.00 0.00 68 1015.5
20260507204112 56 241 11.3 16.5 0.00 0.00 0.00 67 1015.6
20260507203111 56 213 10.4 15.6 0.00 0.00 0.00 67 1015.4
20260507202111 57 226 12.2 13.9 0.00 0.00 0.00 67 1015.4
20260507201111 57 216 7.0 12.2 0.00 0.00 0.00 66 1015.3
20260507200112 58 231 7.8 9.6 0.00 0.00 0.00 66 1015.3
20260507195111 58 236 6.1 10.4 0.00 0.00 0.00 65 1015.1
20260507194112 58 210 8.7 12.2 0.00 0.00 0.00 64 1014.9
20260507193111 58 219 7.8 13.0 0.00 0.00 0.00 64 1014.9
20260507192111 58 235 9.6 12.2 0.00 0.00 0.00 63 1014.7
20260507191112 58 193 9.6 12.2 0.00 0.00 0.00 63 1014.6
20260507190111 58 234 7.8 10.4 0.00 0.00 0.00 62 1014.5
20260507185111 58 235 7.8 12.2 0.00 0.00 0.00 62 1014.4
20260507184111 59 207 10.4 14.8 0.00 0.00 0.00 62 1014.2
20260507183111 59 233 9.6 13.0 0.00 0.00 0.00 61 1014.1
20260507182111 60 220 8.7 12.2 0.00 0.00 0.00 60 1014.1
20260507181111 60 199 7.0 11.3 0.00 0.00 0.00 58 1014.1
20260507180111 61 229 7.8 11.3 0.00 0.00 0.00 55 1013.8
20260507175111 62 221 11.3 13.0 0.00 0.00 0.00 51 1013.9
20260507174111 63 216 7.8 12.2 0.00 0.00 0.00 48 1013.9
20260507173111 63 213 8.7 11.3 0.00 0.00 0.00 45 1013.8
20260507172111 64 215 7.8 12.2 0.00 0.00 0.00 43 1013.7
20260507171111 64 222 7.0 13.0 0.00 0.00 0.00 42 1013.5
20260507170111 65 233 10.4 13.0 0.00 0.00 0.00 41 1013.4
20260507165111 66 211 10.4 14.8 0.00 0.00 0.00 39 1013.2
20260507164111 67 217 10.4 13.9 0.00 0.00 0.00 38 1013.1
20260507163111 68 218 8.7 11.3 0.00 0.00 0.00 35 1013.0
20260507162111 68 201 7.8 11.3 0.00 0.00 0.00 34 1012.8
20260507161111 69 184 8.7 10.4 0.00 0.00 0.00 34 1012.8
20260507160111 70 175 7.8 9.6 0.00 0.00 0.00 33 1012.7
20260507155111 70 184 5.2 8.7 0.00 0.00 0.00 30 1012.8
20260507154111 71 185 6.1 8.7 0.00 0.00 0.00 30 1012.7
20260507153111 71 188 7.0 7.8 0.00 0.00 0.00 29 1012.8
20260507152111 71 165 7.0 11.3 0.00 0.00 0.00 29 1012.7
20260507151111 71 192 7.0 9.6 0.00 0.00 0.00 29 1012.7
20260507150111 72 187 8.7 12.2 0.00 0.00 0.00 28 1012.7
20260507145111 73 175 3.5 8.7 0.00 0.00 0.00 28 1012.7
20260507144111 74 201 3.5 7.0 0.00 0.00 0.00 26 1013.0
20260507143111 74 213 7.8 9.6 0.00 0.00 0.00 26 1012.9
20260507142111 74 173 7.0 8.7 0.00 0.00 0.00 26 1012.9
20260507141111 74 132 3.5 10.4 0.00 0.00 0.00 28 1013.0
20260507140111 73 198 0.9 7.0 0.00 0.00 0.00 31 1013.0
20260507135111 72 231 6.1 8.7 0.00 0.00 0.00 28 1012.9
20260507134111 72 232 8.7 10.4 0.00 0.00 0.00 30 1012.9
20260507133111 73 236 7.8 13.0 0.00 0.00 0.00 29 1013.2
20260507132111 73 249 4.3 7.8 0.00 0.00 0.00 31 1013.1
20260507131110 73 270 4.3 7.0 0.00 0.00 0.00 31 1013.1
20260507130111 73 294 4.3 9.6 0.00 0.00 0.00 30 1013.2
20260507125111 73 284 2.6 8.7 0.00 0.00 0.00 34 1013.2
20260507124110 73 333 4.3 8.7 0.00 0.00 0.00 31 1013.3
20260507123111 72 303 7.0 11.3 0.00 0.00 0.00 33 1013.4
20260507122111 72 245 2.6 7.8 0.00 0.00 0.00 33 1013.5
20260507121110 72 313 3.5 7.0 0.00 0.00 0.00 34 1013.6
20260507120111 71 225 7.0 10.4 0.00 0.00 0.00 36 1013.6
20260507115110 70 336 3.5 7.8 0.00 0.00 0.00 35 1013.6
20260507114110 70 299 7.8 9.6 0.00 0.00 0.00 34 1013.7
20260507113111 70 360 5.2 8.7 0.00 0.00 0.00 37 1014.0
20260507112111 69 263 7.0 10.4 0.00 0.00 0.00 36 1014.0
20260507111110 69 250 6.1 8.7 0.00 0.00 0.00 40 1014.0
20260507110110 67 229 3.5 12.2 0.00 0.00 0.00 40 1014.2
20260507105110 67 235 4.3 10.4 0.00 0.00 0.00 41 1014.3
20260507104110 67 232 9.6 11.3 0.00 0.00 0.00 42 1014.2
20260507103110 67 224 6.1 12.2 0.00 0.00 0.00 41 1014.3
20260507102110 67 269 7.0 11.3 0.00 0.00 0.00 42 1014.3
20260507101110 66 230 7.0 11.3 0.00 0.00 0.00 44 1014.2
20260507100110 65 234 8.7 11.3 0.00 0.00 0.00 45 1014.2
20260507095110 65 233 7.8 11.3 0.00 0.00 0.00 45 1014.2
20260507094111 64 235 8.7 13.9 0.00 0.00 0.00 45 1014.2
20260507093110 64 268 7.0 11.3 0.00 0.00 0.00 46 1014.1
20260507092110 64 313 7.8 10.4 0.00 0.00 0.00 46 1014.0
20260507091110 64 241 10.4 12.2 0.00 0.00 0.00 44 1013.9
20260507090110 64 225 7.8 11.3 0.00 0.00 0.00 45 1013.8
20260507085110 65 253 7.0 11.3 0.00 0.00 0.00 45 1013.7
20260507084110 64 257 7.0 13.0 0.00 0.00 0.00 48 1013.4
20260507083110 63 261 7.0 10.4 0.00 0.00 0.00 49 1013.4
20260507082110 62 285 4.3 9.6 0.00 0.00 0.00 49 1013.4
20260507081110 62 233 6.1 10.4 0.00 0.00 0.00 49 1013.4
20260507080110 62 286 7.8 13.0 0.00 0.00 0.00 47 1013.2
20260507075110 62 205 8.7 13.0 0.00 0.00 0.00 47 1013.1
20260507074110 62 287 10.4 13.9 0.00 0.00 0.00 48 1012.9
20260507073110 61 286 4.3 9.6 0.00 0.00 0.00 49 1012.7
20260507072110 61 273 7.8 12.2 0.00 0.00 0.00 49 1012.8
20260507071110 61 246 8.7 13.9 0.00 0.00 0.00 50 1012.6
20260507070110 61 254 6.1 15.6 0.00 0.00 0.00 49 1012.7
20260507065110 61 260 7.0 12.2 0.00 0.00 0.00 49 1012.6
20260507064110 61 261 12.2 15.6 0.00 0.00 0.00 49 1012.5
20260507063110 61 268 6.1 13.0 0.00 0.00 0.00 49 1012.5
20260507062110 61 265 8.7 17.4 0.00 0.00 0.00 50 1012.4
20260507061110 60 265 5.2 15.6 0.00 0.00 0.00 51 1012.3
20260507060110 60 255 11.3 14.8 0.00 0.00 0.00 52 1012.3
20260507055110 60 242 8.7 13.9 0.00 0.00 0.00 52 1012.2
20260507054110 60 240 10.4 13.0 0.00 0.00 0.00 54 1012.2
20260507053110 59 265 6.1 11.3 0.00 0.00 0.00 54 1012.2
20260507052110 59 235 7.0 13.9 0.00 0.00 0.00 54 1012.0
20260507051110 58 252 11.3 13.9 0.00 0.00 0.00 55 1012.0
20260507050110 58 257 10.4 15.6 0.00 0.00 0.00 55 1011.5
20260507045110 58 236 9.6 13.9 0.00 0.00 0.00 56 1011.4
20260507044110 58 237 13.0 19.1 0.00 0.00 0.00 56 1011.3
20260507043109 58 261 12.2 18.2 0.00 0.00 0.00 56 1011.2
20260507042109 58 258 12.2 18.2 0.00 0.00 0.00 56 1011.1
20260507041109 58 275 9.6 18.2 0.00 0.00 0.00 56 1010.9
20260507040109 58 251 13.9 17.4 0.00 0.00 0.00 55 1010.8
20260507035110 58 244 10.4 18.2 0.00 0.00 0.00 55 1010.7
20260507034109 58 248 12.2 21.7 0.00 0.00 0.00 55 1010.7
20260507033109 58 244 11.3 22.6 0.00 0.00 0.00 55 1010.6
20260507032109 58 245 13.9 20.9 0.00 0.00 0.00 55 1010.7
20260507031109 58 277 13.0 22.6 0.00 0.00 0.00 55 1010.3
20260507030109 58 271 16.5 21.7 0.00 0.00 0.00 56 1010.3
20260507025109 58 241 13.0 15.6 0.00 0.00 0.00 57 1010.3
20260507024109 58 234 12.2 19.1 0.00 0.00 0.00 57 1010.3
20260507023109 58 257 9.6 16.5 0.00 0.00 0.00 58 1010.4
20260507022110 58 311 10.4 21.7 0.00 0.00 0.00 58 1010.1
20260507021109 58 254 12.2 20.0 0.00 0.00 0.00 58 1010.1
20260507020110 59 232 13.0 18.2 0.00 0.00 0.00 58 1010.2
20260507015109 59 244 13.9 17.4 0.00 0.00 0.00 57 1010.0
20260507014109 59 264 12.2 18.2 0.00 0.00 0.00 58 1009.9
20260507013124 60 244 8.7 14.8 0.00 0.00 0.00 57 1010.0
20260507012109 60 257 13.0 18.2 0.00 0.00 0.00 57 1010.0
20260507011109 60 232 13.0 19.1 0.00 0.00 0.00 57 1010.0
20260507010109 60 248 13.9 22.6 0.00 0.00 0.00 57 1009.8
20260507005110 60 360 15.6 20.0 0.00 0.00 0.00 57 1009.4
20260507004110 60 242 11.3 17.4 0.00 0.00 0.00 58 1009.4
20260507003110 60 240 11.3 16.5 0.00 0.00 0.00 58 1009.4
20260507002110 60 247 13.0 20.0 0.00 0.00 0.00 58 1009.3
20260507001110 61 263 14.8 21.7 0.00 0.00 0.00 58 1009.2
20260507000110 61 252 10.4 22.6 0.00 0.00 0.00 58 1009.2
20260506235110 61 259 13.0 18.2 0.00 0.00 0.00 59 1009.2
20260506234110 61 246 13.0 18.2 0.00 0.00 0.00 58 1009.3
20260506233110 60 244 15.6 19.1 0.00 0.00 0.00 58 1009.2
20260506232110 60 229 9.6 16.5 0.00 0.00 0.00 58 1008.9
20260506231110 60 225 7.8 9.6 0.00 0.00 0.00 58 1008.9
20260506230110 60 218 1.7 4.3 0.00 0.00 0.00 58 1008.8
20260506225110 60 220 3.5 6.1 0.00 0.00 0.00 58 1008.7
20260506224110 60 204 6.1 7.8 0.00 0.00 0.00 57 1008.6
20260506223110 61 195 4.3 7.8 0.00 0.00 0.00 57 1008.4
20260506222110 61 180 6.1 7.8 0.00 0.00 0.00 56 1007.9
20260506221110 62 171 7.0 9.6 0.00 0.00 0.00 55 1007.9
20260506220110 62 184 7.8 13.0 0.00 0.00 0.00 55 1007.9
20260506215113 63 173 8.7 10.4 0.00 0.00 0.00 54 1007.8
20260506214113 63 174 10.4 16.5 0.00 0.00 0.00 54 1007.6
20260506213113 63 153 11.3 18.2 0.00 0.00 0.00 53 1007.5